Location: Cantaing
(50.1487°N, 3.1675°E)
Time: 06:02:18
(UTC+00:00)

CZ-4 R/B - Pass Details

Date: 14 January 2026
Orbit: 676 x 743 km, 98.7° (Epoch: 10 February)

Event Time Altitude Azimuth Distance (km) Brightness Sun altitude
Rises 05:07:09 0° 16° (NNE) 3,088 7.3 -24.0°
Reaches altitude 10° 05:09:23 10° 18° (NNE) 2,176 6.5 -23.6°
Maximum altitude 05:14:10 77° 104° (ESE) 734 3.9 -22.8°
Drops below altitude 10° 05:19:00 10° 191° (S) 2,202 6.3 -22.1°
Sets 05:21:17 0° 193° (SSW) 3,128 7.1 -21.7°
